Hatteras, NC

11:53 AM EDT on October 17, 2019 (GMT -0400)
Mitchell

Weather History for KHSE - August, 2019

Change the Weather History Date:

Thursday, August 15, 2019

  Actual Average Record
Temperature  
Mean Temperature 82 °F 79 °F  
Max Temperature 88 °F 84 °F 91 °F (2005)
Min Temperature 77 °F 73 °F 61 °F (1983)
Degree Days  
Heating Degree Days 0 0  
Month to date heating degree days 0 0  
Since 1 June heating degree days 0 3  
Since 1 July heating degree days 0 0  
Cooling Degree Days 18 14  
Month to date cooling degree days 257 210  
Year to date cooling degree days 1557 1098  
Since 1 June cooling degree days 1175 955  
Growing Degree Days 32 (Base 50)    
Moisture  
Dew Point 78 °F    
Average Humidity 88    
Maximum Humidity 97    
Minimum Humidity 75    
Precipitation  
Precipitation 0.19 in 0.22 in 2.00 in (1992)
Month to date precipitation 2.79 3.12  
Year to date precipitation 34.51 33.38  
Snow  
Snow 0.00 in - - ()
Month to date snowfall 0.0  
Since 1 July snowfall 0.0  
Snow Depth 0.00 in    
Sea Level Pressure  
Sea Level Pressure 29.93 in    
Wind  
Wind Speed 7 mph ()    
Max Wind Speed 17 mph    
Max Gust Speed 25 mph    
Visibility 7.8 miles    
Events Rain , Thunderstorm    
T = Trace of Precipitation, MM = Missing Value Source: Averaged Metar Reports

Daily Weather History Graph

Daily Weather History Graph

Search for Another Location

Airport or City:

Astronomy

Aug. 15, 2019 Rise Set
Actual Time 6:21 AM EDT 7:51 PM EDT
Civil Twilight 5:55 AM EDT 8:18 PM EDT
Nautical Twilight 5:22 AM EDT 8:50 PM EDT
Astronomical Twilight 4:48 AM EDT 9:24 PM EDT
Moon 8:17 PM EDT (8/15) 6:16 AM EDT (8/15)
Length of Visible Light 14h 23m
Length of Day
13h 29m
Full, 100% of the Moon is Illuminated
Aug 15
Full
Aug 23
Last Quarter
Aug 30
New
Sep 5
First Quarter
Sep 14
Full

Hourly Weather History & Observations

Time (EDT) Temp. Heat Index Dew Point Humidity Pressure Visibility Wind Dir Wind Speed Gust Speed Precip Events Conditions
12:51 AM 82.9 °F 94.8 °F 80.1 °F 91% 29.92 in 7.0 mi WSW 8.1 mph - N/A   Partly Cloudy
1:21 AM 82.0 °F 92.8 °F 80.1 °F 94% 29.92 in 6.0 mi WSW 8.1 mph - N/A Thunderstorm Mostly Cloudy
1:51 AM 81.0 °F 88.6 °F 78.1 °F 91% 29.92 in 3.0 mi SW 12.7 mph 23.0 mph 0.00 in Rain , Thunderstorm Light Thunderstorms and Rain
2:03 AM 80.1 °F 85.8 °F 77.0 °F 90% 29.92 in 6.0 mi SW 9.2 mph 19.6 mph 0.03 in Thunderstorm Mostly Cloudy
2:20 AM 80.1 °F 85.8 °F 77.0 °F 90% 29.90 in 7.0 mi SW 9.2 mph - 0.03 in Rain , Thunderstorm Light Rain
2:48 AM 78.8 °F - 75.2 °F 89% 29.91 in 6.0 mi WSW 13.8 mph 20.7 mph 0.04 in Rain Light Rain
2:51 AM 79.0 °F - 75.9 °F 90% 29.91 in 5.0 mi WSW 16.1 mph 24.2 mph 0.05 in Rain Rain
3:51 AM 78.1 °F - 75.9 °F 93% 29.90 in 8.0 mi SW 9.2 mph - 0.10 in Rain Light Rain
4:51 AM 78.1 °F - 75.9 °F 93% 29.86 in 6.0 mi WSW 5.8 mph - 0.01 in Rain Light Rain
6:51 AM 79.0 °F - 77.0 °F 94% 29.92 in 9.0 mi Calm Calm - N/A   Clear
7:51 AM 80.1 °F 86.4 °F 78.1 °F 94% 29.94 in 4.0 mi SW 5.8 mph - N/A   Clear
8:51 AM 80.1 °F 85.8 °F 77.0 °F 90% 29.95 in 5.0 mi South 4.6 mph - N/A   Partly Cloudy
9:51 AM 81.0 °F 88.6 °F 78.1 °F 91% 29.95 in 8.0 mi South 4.6 mph - N/A   Scattered Clouds
10:51 AM 82.9 °F 92.8 °F 78.1 °F 85% 29.96 in 10.0 mi SSW 5.8 mph - N/A   Scattered Clouds
11:18 AM 82.9 °F 92.8 °F 78.1 °F 85% 29.95 in 9.0 mi SSW 4.6 mph - N/A   Mostly Cloudy
11:43 AM 84.9 °F 97.5 °F 79.0 °F 82% 29.95 in 8.0 mi SW 5.8 mph - N/A   Partly Cloudy
11:51 AM 84.9 °F 97.5 °F 79.0 °F 82% 29.96 in 9.0 mi SW 6.9 mph - N/A   Partly Cloudy
12:51 PM 87.1 °F 101.5 °F 79.0 °F 77% 29.95 in 10.0 mi Variable 6.9 mph - N/A   Mostly Cloudy
1:51 PM 84.0 °F 96.0 °F 79.0 °F 85% 29.94 in 9.0 mi Variable 6.9 mph - N/A   Overcast
2:51 PM 86.0 °F 99.3 °F 79.0 °F 79% 29.94 in 9.0 mi SSW 8.1 mph - N/A   Partly Cloudy
3:51 PM 84.9 °F 97.5 °F 79.0 °F 82% 29.92 in 10.0 mi SSW 6.9 mph - N/A   Mostly Cloudy
4:51 PM 84.0 °F 96.0 °F 79.0 °F 85% 29.93 in 7.0 mi South 5.8 mph - N/A   Mostly Cloudy
5:51 PM 82.9 °F 92.8 °F 78.1 °F 85% 29.93 in 10.0 mi SSW 5.8 mph - N/A   Mostly Cloudy
6:51 PM 82.0 °F 91.6 °F 79.0 °F 90% 29.92 in 9.0 mi SSW 5.8 mph - 0.00 in Rain Light Rain
6:59 PM 82.0 °F 91.6 °F 79.0 °F 90% 29.92 in 8.0 mi SSW 5.8 mph - 0.00 in Rain Light Rain
7:23 PM 81.0 °F 87.3 °F 75.9 °F 85% 29.92 in 10.0 mi SW 8.1 mph - 0.00 in   Scattered Clouds
7:51 PM 81.0 °F 87.9 °F 77.0 °F 88% 29.93 in 7.0 mi SW 4.6 mph - 0.00 in   Clear
8:51 PM 80.1 °F 85.4 °F 75.9 °F 87% 29.96 in 10.0 mi SSW 4.6 mph - N/A   Clear
9:51 PM 81.0 °F 87.3 °F 75.9 °F 85% 29.97 in 10.0 mi South 5.8 mph - N/A   Mostly Cloudy
10:51 PM 81.0 °F 87.9 °F 77.0 °F 88% 29.97 in 9.0 mi South 6.9 mph - N/A   Mostly Cloudy
11:51 PM 81.0 °F 88.6 °F 78.1 °F 91% 29.98 in 7.0 mi SSE 4.6 mph - N/A   Clear